User: anonymous   Login
Location: Newark
(43.0000°N, 1.6781°W)
Time: 12:18:44
(UTC+00:00)
Language:

Transit 2A Rocket - Orbit

View from above orbital plane
View from above orbital plane
View from above satellite
View from above satellite

Ground track
Ground track

The orbit data is extracted from the following two-line orbital elements,

1 00047U 60007C   22269.77273511  .00000213  00000-0  72880-4 0  9993
2 00047  66.6648  91.7971 0220544  53.9167 308.2140 14.42424564254556
Epoch (UTC): 26 September 2022 18:32:44
Eccentricity: 0.0220544
inclination: 66.6648°
perigee height: 593 km
apogee height: 908 km
right ascension of ascending node: 91.7971°
argument of perigee: 53.9167°
revolutions per day: 14.42424564
mean anomaly at epoch: 308.2140°
orbit number at epoch: 25455

The dashed part of the orbit path shows where the satellite is in the earth's shadow,  

DLR